This is the latest recevied weather packets stored in our database for station/object W2EH. If no packets are shown the sender has not sent any weather packets the latest 10 day(s).
| Time | Temp. | Humidity | Pressure | Rain* | Wind** | Luminosity | Snow |
|---|---|---|---|---|---|---|---|
| 1777563308 | 17.22° C | 97% | 1012.2 hPa | 0 mm | - | 90 W/m² | - |
| 1777563005 | 17.22° C | 97% | 1012.4 hPa | 0 mm | - | 69 W/m² | - |
| 1777562701 | 17.22° C | 97% | 1012.4 hPa | 0 mm | - | 45 W/m² | - |
| 1777562400 | 17.22° C | 97% | 1012 hPa | 0 mm | - | 67 W/m² | - |
| 1777562096 | 17.22° C | 97% | 1011.4 hPa | 0 mm | - | 81 W/m² | - |
| 1777561794 | 17.22° C | 97% | 1011.2 hPa | 0 mm | - | 76 W/m² | - |
| 1777561489 | 16.67° C | 97% | 1011.5 hPa | 0 mm | - | 78 W/m² | - |
| 1777561185 | 16.67° C | 97% | 1011.7 hPa | 0 mm | - | 62 W/m² | - |
| 1777560879 | 16.67° C | 97% | 1012.2 hPa | 0 mm | - | 69 W/m² | - |
| 1777560577 | 16.67° C | 97% | 1011.8 hPa | 0 mm | - | 53 W/m² | - |
| 1777560275 | 16.67° C | 97% | 1012 hPa | 0 mm | - | 70 W/m² | - |
| 1777559972 | 16.67° C | 97% | 1012.5 hPa | 0 mm | - | 71 W/m² | - |
| 1777559667 | 16.67° C | 97% | 1012.5 hPa | 0 mm | - | 68 W/m² | - |
| 1777559365 | 16.67° C | 97% | 1012.2 hPa | 0 mm | - | 98 W/m² | - |
| 1777559061 | 16.11° C | 97% | 1012.5 hPa | 1.27 mm | - | 36 W/m² | - |
| 1777558756 | 16.11° C | 97% | 1012.5 hPa | 1.27 mm | - | 36 W/m² | - |
| 1777558452 | 16.11° C | 97% | 1012.5 hPa | 1.27 mm | - | 36 W/m² | - |
| 1777558149 | 16.11° C | 97% | 1012.7 hPa | 2.29 mm | - | 24 W/m² | - |
| 1777557845 | 16.11° C | 97% | 1012.9 hPa | 2.29 mm | - | 17 W/m² | - |
| 1777557542 | 16.11° C | 97% | 1012.9 hPa | 1.78 mm | - | 9 W/m² | - |
| 1777557238 | 16.11° C | 97% | 1013.2 hPa | 1.27 mm | - | 6 W/m² | - |
| 1777556934 | 16.11° C | 97% | 1012.3 hPa | 1.27 mm | - | 8 W/m² | - |
| 1777556629 | 16.11° C | 97% | 1012 hPa | 0.51 mm | - | 11 W/m² | - |
| 1777556324 | 16.11° C | 97% | 1011.9 hPa | 0 mm | - | 10 W/m² | - |
| 1777556021 | 16.11° C | 97% | 1011.9 hPa | 0 mm | - | 13 W/m² | - |
* Rain latest hour (hover to see other rain measurements)
** Current wind speed in m/s (hover to see current wind gust speed)